N311TY KCRQ-KSAN

Flight info

Callsign N311TY
Flight time N/A
Altitude 5000
Route MZB
Aircraft C408/M-SDFGRY/S

Departure

Time 2026-05-09 01:10
Airport McClellan-Palomar Airport (KCRQ)

Arrival

Time N/A
Airport San Diego International Airport (KSAN)
Time Latitude Longitude Altitude Speed Heading
2026-05-09 00:58 33.12752 -117.27708 323 ft 0 kts 45°
2026-05-09 01:05 33.12768 -117.27684 323 ft 0 kts 63°
2026-05-09 01:06 33.12768 -117.27683 323 ft 0 kts 63°
2026-05-09 01:07 33.12794 -117.27670 320 ft 8 kts 23°
2026-05-09 01:07 33.12804 -117.27629 320 ft 9 kts 79°
2026-05-09 01:08 33.12820 -117.27531 320 ft 13 kts 79°
2026-05-09 01:08 33.12833 -117.27448 321 ft 11 kts 79°
2026-05-09 01:08 33.12851 -117.27339 321 ft 11 kts 79°
2026-05-09 01:08 33.12862 -117.27294 320 ft 0 kts 50°
2026-05-09 01:09 33.12901 -117.27241 319 ft 7 kts 45°
2026-05-09 01:09 33.12946 -117.27256 321 ft 9 kts 261°
2026-05-09 01:10 33.12939 -117.27310 321 ft 4 kts 260°
2026-05-09 01:10 33.12895 -117.27582 317 ft 67 kts 259°
2026-05-09 01:10 33.12769 -117.28337 439 ft 106 kts 258°
2026-05-09 01:10 33.12590 -117.29165 934 ft 101 kts 257°
2026-05-09 01:11 33.12401 -117.30016 1366 ft 105 kts 255°
2026-05-09 01:11 33.12228 -117.30854 1854 ft 107 kts 256°
2026-05-09 01:11 33.12051 -117.31724 2338 ft 108 kts 256°
2026-05-09 01:11 33.11867 -117.32579 2871 ft 105 kts 255°
2026-05-09 01:12 33.11337 -117.33119 3333 ft 113 kts 181°
2026-05-09 01:12 33.10554 -117.32933 3751 ft 118 kts 169°
2026-05-09 01:12 33.09758 -117.32669 4202 ft 119 kts 168°
2026-05-09 01:12 33.08950 -117.32402 4652 ft 122 kts 168°
2026-05-09 01:13 33.08119 -117.32134 5040 ft 131 kts 169°
2026-05-09 01:13 33.07103 -117.31816 5043 ft 170 kts 169°
2026-05-09 01:13 33.05879 -117.31424 5086 ft 192 kts 168°
2026-05-09 01:13 33.04535 -117.30988 5057 ft 207 kts 168°
2026-05-09 01:14 33.03123 -117.30532 5024 ft 213 kts 168°
2026-05-09 01:14 33.01685 -117.30069 5004 ft 215 kts 167°
2026-05-09 01:14 33.00242 -117.29604 5003 ft 214 kts 168°
2026-05-09 01:14 32.98824 -117.29146 5001 ft 208 kts 168°
2026-05-09 01:15 32.97437 -117.28700 4994 ft 207 kts 168°
2026-05-09 01:15 32.96029 -117.28251 4998 ft 211 kts 168°
2026-05-09 01:15 32.94620 -117.27799 5003 ft 213 kts 168°
2026-05-09 01:15 32.93185 -117.27338 5002 ft 214 kts 168°
2026-05-09 01:16 32.91748 -117.26876 5002 ft 214 kts 168°
2026-05-09 01:16 32.90311 -117.26415 5007 ft 214 kts 168°
2026-05-09 01:16 32.88871 -117.25953 5008 ft 214 kts 168°
2026-05-09 01:17 32.85990 -117.25030 5008 ft 215 kts 168°
2026-05-09 01:17 32.84543 -117.24567 5008 ft 215 kts 168°
2026-05-09 01:17 32.83099 -117.24104 5003 ft 214 kts 168°
2026-05-09 01:17 32.81662 -117.23644 5001 ft 214 kts 167°
2026-05-09 01:18 32.80230 -117.23173 4999 ft 213 kts 163°
2026-05-09 01:18 32.79051 -117.22126 4983 ft 208 kts 127°
2026-05-09 01:18 32.78503 -117.20677 3983 ft 189 kts 104°
2026-05-09 01:18 32.78196 -117.19137 3025 ft 183 kts 101°
2026-05-09 01:19 32.77947 -117.17754 2973 ft 163 kts 101°
2026-05-09 01:19 32.77721 -117.16480 2977 ft 152 kts 101°
2026-05-09 01:19 32.77508 -117.15304 2615 ft 138 kts 102°
2026-05-09 01:19 32.77374 -117.14598 2448 ft 126 kts 103°
2026-05-09 01:20 32.76894 -117.13429 2229 ft 120 kts 133°
2026-05-09 01:20 32.76203 -117.12878 2017 ft 118 kts 155°
2026-05-09 01:20 32.75551 -117.12572 1904 ft 115 kts 164°
2026-05-09 01:20 32.74787 -117.12347 1795 ft 113 kts 173°
2026-05-09 01:21 32.74006 -117.12268 1852 ft 113 kts 182°
2026-05-09 01:21 32.73227 -117.12446 1742 ft 117 kts 202°
2026-05-09 01:21 32.72547 -117.12930 1476 ft 118 kts 220°
2026-05-09 01:21 32.72051 -117.13705 1315 ft 115 kts 250°